www.pogodaiklimat.ru

Погода и климат >> Архив погоды >> Парагвай >> Сан Эстанислао


ПОГОДА в Сан Эстанислао

  • Прогноз погоды в Сан Эстанислао
  • Монитор погоды в Сан Эстанислао

АРХИВ ПОГОДЫ в Сан Эстанислао

Время (UTC), дата Ветер
(напр.,м/с)
 
Видим.   Явления Облачность Т
(С)
Тd
(С)
f
(%)
Тe
(С)
Тes
(С)
Комфортность P
(гПа)
Po
(гПа)
Тmin
(С)
Tmax
(С)
R
(мм)
R24
(мм)
S
(см)
06 17.07 штиль 0 20 км ясно +10.4 +8.7 89 +10 +10 1022.8 999.8
09 17.07 штиль 0 20 км ясно +8.0 +5.8 86 +7 +7 1022.0 998.7
12 17.07 штиль 0 20 км ясно +10.4 +7.7 83 +10 +13 1022.0 998.7 +7.5
15 17.07 В 3 20 км ясно +17.4 +8.5 56 +18 +27 1022.5 999.9
18 17.07 В 3 20 км ясно +22.4 +11.2 49 +25 +31 комфорт 1019.8 997.6
21 17.07 штиль 0 20 км ясно +22.2 +11.2 50 +24 +24 комфорт 1019.7 997.5
00 18.07 штиль 0 20 км ясно +20.4 +10.8 54 +22 +22 комфорт 1021.0 998.6 +24.0
15 18.07 штиль 0 20 км 10/10 600 м
[Sc]
+18.4 +10.3 59 +19 +19 1020.1 997.6
18 18.07 штиль 0 20 км 10/10 600 м
[Sc]
+22.2 +13.2 57 +25 +25 комфорт 1017.8 995.6
21 18.07 штиль 0 20 км 8/8 600 м
[Sc]
+18.4 +10.3 59 +19 +19 1018.6 996.1
00 19.07 В 3 20 км 10/10 600 м
[Sc]
+17.0 +11.8 71 +17 +17 1019.2 996.6 +24.5
09 19.07 СВ 3 20 км 8/8 600 м
[Sc]
+15.0 +11.2 78 +14 +14 1017.3 994.6
12 19.07 штиль 0 1000 м дождь 10/10 180 м
[Sc]
+17.4 +16.4 94 +17 +17 1017.3 994.7 +14.5 0.0
15 19.07 штиль 0 1000 м дождь 10/10 180 м
[Sc]
+17.0 +15.7 92 +17 +17 1018.0 995.7 8
18 19.07 штиль 0 20 км {дождь} 10/10 180 м
[Sc]
+17.4 +15.7 90 +17 +17 1017.3 994.6 1
21 19.07 штиль 0 20 км 6/6 600 м
[Sc]
+18.2 +10.3 60 +18 +18 1017.2 994.6
00 20.07 штиль 0 20 км 5/0 2000 м
[Ac As]
+18.0 +16.0 88 +18 +18 1018.9 996.3 +19.5
03 20.07 штиль 0 20 км 4/0 2000 м
[Ac As]
+17.0 +15.7 92 +17 +17 1018.8 986.3
09 20.07 В 1 20 км 4/0 2000 м
[Ac As]
+16.8 +15.4 91 +18 +18 1016.9 994.3
12 20.07 В 3 20 км 6/0 2000 м
[Ac As]
+18.0 +14.5 80 +18 +20 1016.9 994.3 +15.5 0.0
15 20.07 В 1 20 км 6/0 2000 м
[Ac As]
+20.4 +12.6 61 +24 +31 комфорт 1015.5 993.3
18 20.07 СВ 2 20 км 4/0 2000 м
[Ac As]
+25.0 +17.1 62 +29 +34 душно 1014.1 992.2
21 20.07 СВ 2 20 км ясно +24.8 +17.1 62 +29 +29 душно 1014.1 992.2
00 21.07 штиль 0 20 км ясно +24.6 +17.1 63 +28 +28 душно 1014.1 992.2 +26.5
15 21.07 СВ 3 20 км ясно +21.4 +11.7 54 +23 +33 комфорт 1011.9 989.7
18 21.07 СВ 3 20 км 8/8 600 м
[Sc]
+25.0 +15.0 54 +28 +29 жарко 1010.2 988.3
21 21.07 В 3 20 км 5/0 2000 м
[Ac As]
+24.8 +15.0 54 +28 +28 жарко 1010.2 988.3
00 22.07 В 1 20 км 4/0 2000 м
[Ac As]
+23.0 +11.7 49 +25 +25 комфорт 1011.3 989.3 +26.0
18 22.07 СВ 3 20 км 8/8 600 м
[Sc]
+28.6 +18.3 54 +33 +35 очень
душно
1009.6 988.0
00 23.07 штиль 0 20 км ясно +27.0 +19.3 63 +33 +33 очень
душно
1010.7 989.0 +30.5
03 23.07 СВ 1 20 км ясно +26.8 +19.3 63 +32 +32 очень
душно
1010.7 989.0
09 23.07 20 км н/о +22.0 +17.1 74 +26 +26 душно 1011.9 989.8
15 23.07 СВ 2 20 км 5/0 2000 м
[Ac As]
+25.6 +14.3 50 +28 +35 жарко 1015.9 994.1
18 23.07 СВ 1 20 км 4/0 2000 м
[Ac As]
+27.4 +15.2 47 +30 +36 жарко 1013.8 992.1
21 23.07 штиль 0 20 км 8/8 600 м
[Sc]
+22.4 +13.3 56 +25 +25 комфорт 1014.7 992.6
00 24.07 штиль 0 20 км 6/0 2000 м
[Ac As]
+16.4 +10.1 66 +16 +16 1016.8 994.1 +28.0
03 24.07 штиль 0 20 км 9/9 600 м
[Sc]
+16.0 +10.1 68 +16 +16 1016.8 994.1

 

Местоположение метеостанции Сан Эстанислао (Парагвай): широта -24.65 долгота -56.43 высота над уровнем моря 168 м.

В архиве по умолчанию представлена погода в Сан Эстанислао за последнюю неделю. Архивные данные за месяц целиком и за предыдущие месяцы, начиная с января 2011 года, Вы можете получить, выбрав интересующий диапазон дат из раскрывающегося списка и нажав кнопку "Ввод!".


*Определитесь, кто Вы:
робот инопланетянин человек

Внимание! Время в таблицах - всемирное. Для получения местного времени необходимо прибавить поправку, которая равна -4 ч.

Смотрите также архив погоды в соседних городах и на ближайших метеорологических станциях:

Погода в Коронель-Овьедо (Парагвай) (89 км)
Погода в Сан-Педро (Парагвай) (93 км)
Погода в Вильяррике (Парагвай) (122 км)
Погода в Асунсьоне (Парагвай) (128 км)
Погода в Парагуари (Парагвай) (130 км)
Погода в Сети-Кедасе (Мату-Гросу-ду-Сул, Бразилия) (162 км)
Погода в Консепсьоне (Парагвай) (164 км)
Погода в Каасапе (Парагвай) (170 км)
Погода в Аэропорту Гуарани (Парагвай) (182 км)
Погода в Куйкуйо (Парагвай) (183 км)

Пояснения к столбцам:

Ветер - указаны скорость ветра в м/с - средняя за 10 мин, порывы в срок и между сроками (в фигурных скобках) и направление, откуда дует ветер: С - северный, СВ - северо-восточный, В - восточный, ЮВ - юго-восточный, Ю - южный, ЮЗ - юго-западный, З - западный, СЗ - северо-западный.
Видимость - горизонтальная дальность видимости в метрах или километрах. При видимости от 1 до 10 км при отсутствии осадков обычно наблюдается дымка, при ухудшении видимости до 1 км и менее - туман. В сухую погоду видимость может ухудшаться дымом, пылью или мглою.
Явления - указаны атмосферные явления, наблюдавшиеся в срок или в последний час перед сроком; фигурными скобками обозначены явления, наблюдавшиеся между сроками (за 1-3 часа до срока); квадратными скобками обозначены град или гололедные отложения с указанием их диаметра в мм.
Облачность - указаны через наклонную черту общая и нижняя облачность в баллах и высота нижней границы облаков в метрах; квадратными скобками обозначены формы облаков: Ci - перистые, Cs - перисто-слоистые, Cc - перисто-кучевые, Ac - высококучевые, As - высокослоистые, Sc - слоисто-кучевые, Ns - слоисто-дождевые, Cu - кучевые, Cb - кучево-дождевые. Подробнее классификацию облаков см. в Атласе облаков (PDF).
T - Температура воздуха - температура, измеренная на высоте 2 м над землей.
Td - Температура точки росы - температура, при понижении до которой содержащийся в воздухе водяной пар достигнет насыщения.
f - Относительная влажность воздуха - влажноcть воздуха, измеренная на высоте 2 м над землей.
Te - Эффективная температура - температура, которую ощущает одетый по сезону человек в тени. Характеристика душности погоды. При расчете учитывается влияние влажности воздуха и скорости ветра на теплоощущения человека.
Tes - Эффективная температура на солнце - температура, которую ощущает человек, с поправкой на солнечный нагрев. Характеристика знойности погоды. Зависит от высоты солнца над горизонтом, облачности и скорости ветра. Ночью, в пасмурную погоду, а также при ветре 12 м/с и более поправка равна нулю.
P - Атмосферное давление - приведенное к уровню моря атмосферное давление.
Po - Атмосферное давление - измеренное на уровне метеостанции атмосферное давление.
Tmin - Минимальная температура - минимум температуры воздуха на высоте 2 м над землей.
Tmax - Максимальная температура - максимум температуры воздуха на высоте 2 м над землей.
R - Количество осадков - Количество выпавших осадков за период времени, мм. При наведении курсора мыши на число - период времени, за который выпало указанное количество осадков.
R24 - Количество осадков - Количество выпавших осадков за 24 часа, мм.
S - Снежный покров - Высота снежного покрова, см. При наведении курсора мыши на число - состояние снежного покрова и степень покрытия местности в баллах.